Location: Aufkirchen
(47.9603°N, 11.3653°E)
Time: 16:54:55
(UTC+01:00)

Transit 2A - Pass Details

Date: 29 November 2020
Orbit: 599 x 960 km, 66.7° (Epoch: 26 January)

Event Time Altitude Azimuth Distance (km) Brightness Sun altitude
Rises 23:23:45 0° 324° (NW) 3,429 - -62.5°
Reaches altitude 10° 23:27:30 10° 347° (NNW) 2,409 - -62.8°
Maximum altitude 23:30:34 15° 21° (NNE) 2,016 - -62.9°
Drops below altitude 10° 23:33:29 10° 55° (NE) 2,266 - -63.0°
Sets 23:36:50 0° 79° (E) 3,105 - -63.2°
